Starlink 31438

operational
NORAD ID: 59234 Int'l Des: 2024-049 Owner: SPXS Country: US Constellation: starlink
LEOCIRCULAR

Starlink 31438について

説明を読み込み中...

リアルタイム位置

3D地球を読み込み中...

次回通過

高度履歴

Altitude vs Time

uPlot chart will show altitude changes over time

軌道要素

1 59234U 24049D 25302.98429062 .00000378 00000-0 23265-4 0 9994
2 59234 43.0013 150.6793 0001552 273.8964 86.1710 15.27590938 92530
Epoch: Oct 29, 2025 • Age: 16 hours

現在のステータス

高度 483.3 km
速度 7.63 km/s
衛星直下点 22.47°N, 22.17°E
打ち上げ日 Mar 16, 2024
運用期間 1.6 years
タイプ internet

技術仕様

分類 Payload
質量 730.00 kg
乾燥質量 700.00 kg
総質量 730.00 kg
長さ 0.30 m
直径 4.10 m
スパン 29.00 m
形状 Box + pan
製造者 SPXS
バスタイプ Starlink V2M
フェーズステータス In Orbit
所有者/国 SPXS/US

大規模コンステレーション

Loading constellations...